Time,TemperatureF,DewpointF,PressureIn,WindDirection,WindDirectionDegrees,WindSpeedMPH,WindSpeedGustMPH,Humidity,HourlyPrecipIn,Conditions,Clouds,dailyrainin,SolarRadiationWatts/m^2,SoftwareType,DateUTC
2013-09-16 00:04:00,40.0,40.0,-100.00,SSW,212,0.0,2.0,99,0.00,,,0.09,0.000000,,2013-09-16 05:04:00,
2013-09-16 00:44:00,37.0,37.0,-100.00,SSW,213,0.0,0.0,100,0.00,,,0.05,0.000000,,2013-09-16 05:44:00,
2013-09-16 00:53:00,37.0,37.0,-100.00,SSW,213,0.0,0.0,100,0.00,,,0.05,0.000000,,2013-09-16 05:53:00,
2013-09-16 01:03:00,37.0,37.0,-100.00,SSW,213,0.0,0.0,100,0.00,,,0.05,0.000000,,2013-09-16 06:03:00,
2013-09-16 01:43:00,35.0,35.0,-100.00,SSW,213,0.0,0.0,100,0.00,,,0.04,0.000000,,2013-09-16 06:43:00,
2013-09-16 01:52:00,35.0,35.0,-100.00,SSW,213,0.0,0.0,100,0.00,,,0.04,0.000000,,2013-09-16 06:52:00,
2013-09-16 02:02:00,35.0,35.0,-100.00,SSW,213,0.0,0.0,100,0.00,,,0.04,0.000000,,2013-09-16 07:02:00,
2013-09-16 02:43:00,35.0,35.0,-100.00,SSW,213,0.0,0.0,100,0.00,,,0.03,0.000000,,2013-09-16 07:43:00,
2013-09-16 02:52:00,35.0,35.0,-100.00,SSW,213,0.0,0.0,100,0.00,,,0.03,0.000000,,2013-09-16 07:52:00,
2013-09-16 03:02:00,35.0,35.0,-100.00,SSW,213,0.0,0.0,100,0.00,,,0.03,0.000000,,2013-09-16 08:02:00,
2013-09-16 03:42:00,33.0,33.0,-100.00,SSW,212,0.0,0.0,100,0.00,,,0.01,0.000000,,2013-09-16 08:42:00,
2013-09-16 03:52:00,33.0,33.0,-100.00,SSW,212,0.0,0.0,100,0.00,,,0.01,0.000000,,2013-09-16 08:52:00,
2013-09-16 04:02:00,33.0,33.0,-100.00,SSW,212,0.0,0.0,100,0.00,,,0.01,0.000000,,2013-09-16 09:02:00,
2013-09-16 04:43:00,32.0,32.0,-100.00,SSW,212,0.0,0.0,100,0.00,,,0.01,0.000000,,2013-09-16 09:43:00,
2013-09-16 04:53:00,32.0,32.0,-100.00,SSW,212,0.0,0.0,100,0.00,,,0.01,0.000000,,2013-09-16 09:53:00,
2013-09-16 05:03:00,32.0,32.0,-100.00,SSW,212,0.0,0.0,100,0.00,,,0.01,0.000000,,2013-09-16 10:03:00,
2013-09-16 05:42:00,32.0,32.0,-100.00,SW,218,0.0,1.0,100,0.00,,,0.00,0.000000,,2013-09-16 10:42:00,
2013-09-16 05:53:00,32.0,32.0,-100.00,SW,218,0.0,1.0,100,0.00,,,0.00,0.000000,,2013-09-16 10:53:00,
2013-09-16 06:02:00,32.0,32.0,-100.00,SW,218,0.0,1.0,100,0.00,,,0.00,0.000000,,2013-09-16 11:02:00,
2013-09-16 06:42:00,32.0,32.0,-100.00,North,9,0.0,1.0,100,0.00,,,0.00,0.000000,,2013-09-16 11:42:00,
2013-09-16 06:52:00,32.0,32.0,-100.00,North,9,0.0,1.0,100,0.00,,,0.00,0.000000,,2013-09-16 11:52:00,
2013-09-16 07:01:00,32.0,32.0,-100.00,North,9,0.0,1.0,100,0.00,,,0.00,0.000000,,2013-09-16 12:01:00,
2013-09-16 07:42:00,31.0,31.0,-100.00,North,9,0.0,0.0,100,0.00,,,0.00,2.000000,,2013-09-16 12:42:00,
2013-09-16 07:52:00,31.0,31.0,-100.00,North,9,0.0,0.0,100,0.00,,,0.00,2.000000,,2013-09-16 12:52:00,
2013-09-16 08:02:00,31.0,31.0,-100.00,North,9,0.0,0.0,100,0.00,,,0.00,2.000000,,2013-09-16 13:02:00,
2013-09-16 08:42:00,39.0,38.0,-100.00,North,9,0.0,0.0,98,0.00,,,0.00,83.000000,,2013-09-16 13:42:00,
2013-09-16 08:52:00,39.0,38.0,-100.00,North,9,0.0,0.0,98,0.00,,,0.00,83.000000,,2013-09-16 13:52:00,
2013-09-16 09:02:00,39.0,38.0,-100.00,North,9,0.0,0.0,98,0.00,,,0.00,83.000000,,2013-09-16 14:02:00,
2013-09-16 09:42:00,48.0,46.0,-100.00,SE,138,1.0,3.0,92,0.00,,,0.00,253.000000,,2013-09-16 14:42:00,
2013-09-16 09:52:00,48.0,46.0,-100.00,SE,138,1.0,3.0,92,0.00,,,0.00,253.000000,,2013-09-16 14:52:00,
2013-09-16 10:02:00,48.0,46.0,-100.00,SE,138,1.0,3.0,92,0.00,,,0.00,253.000000,,2013-09-16 15:02:00,
2013-09-16 10:43:00,53.0,43.0,-100.00,East,96,3.0,7.0,70,0.00,,,0.00,413.000000,,2013-09-16 15:43:00,
2013-09-16 10:53:00,53.0,43.0,-100.00,East,96,3.0,7.0,70,0.00,,,0.00,413.000000,,2013-09-16 15:53:00,
2013-09-16 11:03:00,53.0,43.0,-100.00,East,96,3.0,7.0,70,0.00,,,0.00,413.000000,,2013-09-16 16:03:00,
2013-09-16 11:43:00,58.0,43.0,-100.00,ESE,121,4.0,10.0,57,0.00,,,0.00,557.000000,,2013-09-16 16:43:00,
2013-09-16 11:52:00,58.0,43.0,-100.00,ESE,121,4.0,10.0,57,0.00,,,0.00,557.000000,,2013-09-16 16:52:00,
2013-09-16 12:03:00,58.0,43.0,-100.00,ESE,121,4.0,10.0,57,0.00,,,0.00,557.000000,,2013-09-16 17:03:00,
2013-09-16 12:43:00,60.0,40.0,-100.00,ESE,117,4.0,11.0,47,0.00,,,0.00,674.000000,,2013-09-16 17:43:00,
2013-09-16 12:53:00,60.0,40.0,-100.00,ESE,117,4.0,11.0,47,0.00,,,0.00,674.000000,,2013-09-16 17:53:00,
2013-09-16 13:02:00,60.0,40.0,-100.00,ESE,117,4.0,11.0,47,0.00,,,0.00,674.000000,,2013-09-16 18:02:00,
2013-09-16 13:42:00,61.0,38.0,-100.00,ESE,117,5.0,11.0,43,0.00,,,-99.99,739.000000,,2013-09-16 18:42:00,
2013-09-16 13:52:00,61.0,38.0,-100.00,ESE,117,5.0,11.0,43,0.00,,,-99.99,739.000000,,2013-09-16 18:52:00,
2013-09-16 14:01:00,61.0,38.0,-100.00,ESE,117,5.0,11.0,43,0.00,,,-99.99,739.000000,,2013-09-16 19:01:00,
2013-09-16 14:42:00,64.0,38.0,-100.00,SSE,147,4.0,11.0,38,0.00,,,0.00,752.000000,,2013-09-16 19:42:00,
2013-09-16 14:53:00,64.0,38.0,-100.00,SSE,147,4.0,11.0,38,0.00,,,0.00,752.000000,,2013-09-16 19:53:00,
2013-09-16 15:03:00,64.0,38.0,-100.00,SSE,147,4.0,11.0,38,0.00,,,0.00,752.000000,,2013-09-16 20:03:00,
2013-09-16 15:43:00,66.0,38.0,-100.00,ESE,116,5.0,10.0,36,0.00,,,0.00,706.000000,,2013-09-16 20:43:00,
2013-09-16 15:52:00,66.0,38.0,-100.00,ESE,116,5.0,10.0,36,0.00,,,0.00,706.000000,,2013-09-16 20:52:00,
2013-09-16 16:03:00,66.0,38.0,-100.00,ESE,116,5.0,10.0,36,0.00,,,0.00,706.000000,,2013-09-16 21:03:00,
2013-09-16 16:44:00,67.0,38.0,-100.00,SE,125,4.0,11.0,34,0.00,,,0.00,613.000000,,2013-09-16 21:44:00,
2013-09-16 16:56:00,67.0,38.0,-100.00,SE,125,4.0,11.0,34,0.00,,,0.00,613.000000,,2013-09-16 21:56:00,
2013-09-16 17:04:00,67.0,38.0,-100.00,SE,125,4.0,11.0,34,0.00,,,0.00,613.000000,,2013-09-16 22:04:00,
2013-09-16 17:43:00,67.0,38.0,-100.00,ESE,117,3.0,10.0,35,0.00,,,0.00,473.000000,,2013-09-16 22:43:00,
2013-09-16 17:54:00,67.0,38.0,-100.00,ESE,117,3.0,10.0,35,0.00,,,0.00,473.000000,,2013-09-16 22:54:00,
2013-09-16 18:02:00,67.0,38.0,-100.00,ESE,117,3.0,10.0,35,0.00,,,0.00,473.000000,,2013-09-16 23:02:00,
2013-09-16 18:43:00,65.0,39.0,-100.00,ESE,116,4.0,8.0,39,0.00,,,0.00,299.000000,,2013-09-16 23:43:00,
2013-09-16 18:53:00,65.0,39.0,-100.00,ESE,116,4.0,8.0,39,0.00,,,0.00,299.000000,,2013-09-16 23:53:00,
2013-09-16 19:02:00,65.0,39.0,-100.00,ESE,116,4.0,8.0,39,0.00,,,0.00,299.000000,,2013-09-17 00:02:00,
2013-09-16 19:52:00,59.0,45.0,-100.00,SE,141,1.0,5.0,59,0.00,,,0.00,100.000000,,2013-09-17 00:52:00,
2013-09-16 20:02:00,59.0,45.0,-100.00,SE,141,1.0,5.0,59,0.00,,,0.00,100.000000,,2013-09-17 01:02:00,
2013-09-16 20:52:00,47.0,44.0,-100.00,South,189,0.0,2.0,90,0.00,,,0.00,2.000000,,2013-09-17 01:52:00,
2013-09-16 21:03:00,47.0,44.0,-100.00,South,189,0.0,2.0,90,0.00,,,0.00,2.000000,,2013-09-17 02:03:00,
2013-09-16 21:42:00,43.0,41.0,-100.00,ESE,113,0.0,1.0,94,0.00,,,0.00,0.000000,,2013-09-17 02:42:00,
2013-09-16 21:52:00,43.0,41.0,-100.00,ESE,113,0.0,1.0,94,0.00,,,0.00,0.000000,,2013-09-17 02:52:00,
2013-09-16 22:02:00,43.0,41.0,-100.00,ESE,113,0.0,1.0,94,0.00,,,0.00,0.000000,,2013-09-17 03:02:00,
2013-09-16 22:45:00,41.0,40.0,-100.00,ESE,120,0.0,4.0,95,0.00,,,0.00,0.000000,,2013-09-17 03:45:00,
2013-09-16 22:54:00,41.0,40.0,-100.00,ESE,120,0.0,4.0,95,0.00,,,0.00,0.000000,,2013-09-17 03:54:00,
2013-09-16 23:04:00,41.0,40.0,-100.00,ESE,120,0.0,4.0,95,0.00,,,0.00,0.000000,,2013-09-17 04:04:00,
2013-09-16 23:44:00,39.0,38.0,-100.00,East,95,0.0,3.0,96,0.00,,,0.00,0.000000,,2013-09-17 04:44:00,
2013-09-16 23:54:00,39.0,38.0,-100.00,East,95,0.0,3.0,96,0.00,,,0.00,0.000000,,2013-09-17 04:54:00,